STARLINK-35277, 65832

Orbit data source: Space-Track

STARLINK-35277, 65832 is a payload satellite owned by SpaceX/Seattle (US) in LEO that was launched on Mon, 29 Sep 2025 UTC via an FALCON 9 launch vehicle from the Air Force Western Test Range (AFWTR). Payload-class satellites include a variety of spacecraft equipped with specific instruments for various scientific and technological missions. These include communications satellites like Starlink; space stations such as the ISS; scientific satellites like the Hubble; Earth observation satellites from companies like Planet Labs, Umbra, and HawkEye 360; GPS; miniature CubeSats for education and research; and military/defense satellites.

Loading next visibility...
Identifier
65832, 2025-221K
Orbit
LEO
Country
Flag of USUS
Related business
Manufacturer
SpaceX/Seattle
Mission
Operational Commercial Communications
Bus & Motor
STARLINK V2MO, Unknown motor
Mass
575 kg wet, ~530 kg dry
Launch date (UTC)
2025-09-29 (2 months ago)
Launch vehicle
FALCON 9
Launch site
Air Force Western Test Range (AFWTR)
Object type
Payload
Rocket body
Debris
Shape & HBR
Box + 2 Pan, 17.7 m
Radar Cross Section
36.964 m²

Expand to show TLE details & history
Last TLE update: 1 day ago

TLE from 1 day ago
0 STARLINK-35277
1 65832U 25221K   25339.83181638  .00023641  00000-0  80785-3 0  9993
2 65832  53.1584 164.2819 0001039 107.6653 252.4461 15.30196879 11717
Epoch: 2025-12-05T19:57Z
TLE epoch observation values (Epoch: 2025-12-05T19:57:48.935Z)
Latitude
-0.00003°
Longitude
149.95973°
Altitude
476.339 km
Speed
7.629 km/s
True Right ascension
10h 57m 07s
True Declination
0° 00' 00"
Sunlit
Object was in daylight at epoch
Visualization orbit readout
Latitude
Unknown
Longitude
Unknown
Altitude
Unknown
Speed
Unknown
Apparent Right ascension
Unknown
Apparent Declination
Unknown
Sunlit
N/A
Visualization observer readout
Local Sidereal Time
02:39:46
Azimuth
Unknown
Elevation
Unknown
Doppler factor
Unknown
Orbital elements
Apogee altitude
476.193 km
Perigee altitude
474.769 km
Semi-major axis
6,853.618 km
Eccentricity
0.0001
Inclination
53.1584°
RAAN
164.2819°
Arg. of periapsis
107.6653°
True anomaly
252.43475°
Mean anomaly
252.4461°
Eccentric anomaly
252.44042°
Mean motion
3.82528 °/min
Orbital period
94.11 mins
BSTAR
0.00080785
Loading maneuver chart data...
Computing Atmospheric mass density...
Loading historical data...
Loading historical data...
Loading historical data...
Loading historical data...
Loading historical data...
Loading historical data...
Loading historical data...

Documentation

Showing up to 5 results
|